Content
SEND FEEDBACK

Daily
Averages
Monthly
Summary
United States of America

CUPERTINO - SANTA CLARA UNIVERSITY, CALIFORNIA


Home > North America > United States > California
Elevation: 90 feet     Latitude: 37 21N     Longitude: 121 56W

WEATHER
 
SELECT A DAY
Number of Records: 174,442;   Date Range: 1/1/95 - 9/20/14
 
SHARE

PRINT THIS DATA

[ ← Previous Day ]
WEATHER ALMANAC - JANUARY 31, 2013
[ Next Day → ]
[ °C ]   °F
Weather ElementAverageHighLow
Temperature50.9 °F64.9 °F (2:53 pm)39.2 °F (2:53 am)
Dewpoint40.2 °F45 °F (4:53 pm)35.6 °F (2:53 am)
Humidity69.1 %87 % (2:53 am)39 % (2:53 pm)
Barometer30.23 in30.30 in (9:53 am)30.18 in (3:53 pm)
Wind Speed2 mph8.1 mph (4:53 pm)
Weather ElementAverage
Visibility10 mi
Wind DirectionE (90.4 °)

Weather ElementTotal
Precipitation---
Heating Degree Days13 (Base 65)
Growing Degree Days2.1 (Base 50)
Averaged from 23 records on January 31, 2013
WEATHER CONDITIONS BREAKOUT
WIND DIRECTION BREAKOUT
WEATHER BY HOUR - JANUARY 31, 2013
[ °C ]   °F
Local TimeTemperatureDewpointHumidityBarometerVisibilityWind DirectionWind SpeedGust SpeedPrecipitationEventsConditions
1:53 AM43.0 °F37.0 °F80 %30.29 in10.0 miCalmClear
2:53 AM39.2 °F35.6 °F87 %30.28 in10.0 miESE (110°)3.5 mphClear
3:53 AM43.0 °F37.0 °F80 %30.26 in10.0 miCalmClear
4:53 AM41.0 °F36.0 °F82 %30.27 in10.0 miCalmClear
5:53 AM39.9 °F36.0 °F86 %30.27 in10.0 miSE (140°)3.5 mphClear
6:53 AM39.9 °F36.0 °F86 %30.27 in10.0 miSSE (150°)3.5 mphClear
7:53 AM41.0 °F36.0 °F82 %30.29 in10.0 miCalmClear
8:53 AM46.0 °F39.0 °F76 %30.29 in10.0 miCalmClear
9:53 AM50.0 °F42.1 °F74 %30.30 in10.0 miCalmClear
10:53 AM54.0 °F42.1 °F64 %30.29 in10.0 miCalmClear
11:53 AM57.0 °F41.0 °F55 %30.27 in10.0 miCalmClear
12:53 PM60.1 °F39.0 °F46 %30.24 in10.0 miCalmClear
1:53 PM63.0 °F39.0 °F41 %30.20 in10.0 miCalmClear
2:53 PM64.9 °F39.0 °F39 %30.19 in10.0 miCalmClear
3:53 PM64.9 °F39.9 °F40 %30.18 in10.0 miNW (310°)4.6 mphClear
4:53 PM59.0 °F45.0 °F60 %30.18 in10.0 miWNW (300°)8.1 mphClear
5:53 PM55.0 °F44.1 °F67 %30.18 in10.0 miWNW (300°)4.6 mphClear
6:53 PM55.0 °F44.1 °F67 %30.19 in10.0 miWSW (240°)3.5 mphClear
7:53 PM55.0 °F44.1 °F67 %30.19 in10.0 miSSE (160°)3.5 mphClear
8:53 PM53.1 °F44.1 °F71 %30.19 in10.0 miSSE (150°)3.5 mphClear
9:53 PM50.0 °F43.0 °F77 %30.19 in10.0 miESE (110°)3.5 mphClear
10:53 PM48.0 °F43.0 °F83 %30.19 in10.0 miCalmClear
11:53 PM48.0 °F42.1 °F80 %30.19 in10.0 miESE (110°)3.5 mphClear
Hourly data recorded from KSJC, located miles away from Cupertino - Santa Clara University, California







STORIES FROM OUR PARTNERS